Tracking 28125 objects as of 2-Oct-2023
HD Live streaming from Space Station
objects crossing your sky now

SPACEBEENZ-14

Track SPACEBEENZ-14 now!
10-day predictions


NORAD ID: 52018
Int'l Code: 2022-026L
Perigee: 390.5 km
Apogee: 408.0 km
Inclination: 97.5 °
Period: 92.4 minutes
Semi major axis: 6770 km
RCS: Unknown
Launch date: March 15, 2022
Source: New Zealand (NZ)
Launch site: Kodiak Island, Alaska (KODAK)
Your satellite tracking list
Your tracking list is empty




NASA's NSSDC Master Catalog

Two Line Element Set (TLE):
1 52018U 22026L   23275.01698445  .00188326  00000-0  24116-2 0  9998
2 52018  97.4928 284.0528 0012951  65.4083 294.8521 15.58459577 86258
Source of the keplerian elements: AFSPC